Regional Weather Roundup
Issued by NWS

Current Version | Previous Version | Text Only | Print | Product List | Glossary On
Versions: 1 2 3 4 5 6 7 8 9 10 11 12 13 14 15 16 17 18 19 20 21 22 23 24 25 26 27 28 29 30 31 32 33 34 35 36 37 38 39 40 41 42 43 44 45 46 47 48 49 50
000
ASUS42 KKEY 281810
RWRKEY

FLORIDA REGIONAL WEATHER ROUNDUP FOR THE FLORIDA KEYS
NATIONAL WEATHER SERVICE KEY WEST FLORIDA
200 PM EDT MON JUL 28 2014

...SOUTH FLORIDA AND THE KEYS...

CITY           SKY/WX    TMP DP  RH WIND       PRES   REMARKS
FORT MYERS     CLOUDY    85  77  77 W10       30.07F HX  95
SW REGIONAL AP CLOUDY    83  76  79 W6        30.08F HX  91
NAPLES         PTSUNNY   89  76  65 W9        30.08  HX 100
MIAMI          PTSUNNY   95  67  39 W6        30.07F HX  99
WEST KENDALL   MOSUNNY   95  69  42 NW6       30.07F HX 100
HOMESTEAD      NOT AVBL
MARATHON       PTSUNNY   88  77  69 N7        30.09S HX 100
BOCA CHICA NAS PTSUNNY   92  77  61 VRB5      30.09F HX 105
KEY WEST INTL  PTSUNNY   89  76  65 N3        30.10S HX 100

...INTERNATIONAL WEATHER...

CITY           SKY/WX    TMP DP  RH WIND       PRES   REMARKS
NASSAU BAHAMAS MOSUNNY   91  75  59 N8        30.09F HX 102
CANCUN MEXICO  PTSUNNY   91  75  59 E7        30.08F HX 102
COZUMEL MEXICO MOSUNNY   88  77  70 NE14      30.08S HX 100

ADJACENT COASTAL WATERS...

STATION/POSITION TIME  SKY/WX   TEMP    WIND        PRES    WAVE
                                AIR SEA DIR/SP/G            HT/PER
                 (UTC)          (F)     (DEG/KT/KT) (MB)    (FT/S)
PULASKI SHOAL LI 1800            87     360/  3/  4 1019.2F
SAND KEY         1740            87     290/  2/  3 1019.1F
SOMBRERO KEY     1800            87      CALM  /  4 1019.8S
LONG KEY         1800            87 92   CALM  /  1 1019.6F
MOLASSES REEF    1800            86 87  200/  1/  3 1018.8F
FOWEY ROCKS      1800            86 87  120/  3/  4 1018.8F
Buoy 42080       NOT AVBL

$$


USA.gov is the U.S. government's official web portal to all federal, state and local government web resources and services.